| time (UTC) | temp F | wind direction | speed MPH | gust MPH | rain 1hr in | rain 24hr in | rain mn in | humidity % | barometer mb |
| 20260509090439 | 59 | 102 | 6.0 | 9.0 | 0.00 | 0.00 | 0.00 | 49 | 1013.5 |
| 20260509085937 | 59 | 102 | 6.0 | 7.0 | 0.00 | 0.00 | 0.00 | 48 | 1013.6 |
| 20260509085433 | 60 | 106 | 4.0 | 10.0 | 0.00 | 0.00 | 0.00 | 48 | 1013.6 |
| 20260509084929 | 60 | 94 | 5.0 | 7.0 | 0.00 | 0.00 | 0.00 | 48 | 1013.5 |
| 20260509084426 | 60 | 115 | 7.0 | 9.0 | 0.00 | 0.00 | 0.00 | 47 | 1013.2 |
| 20260509083924 | 60 | 101 | 4.0 | 12.0 | 0.00 | 0.00 | 0.00 | 46 | 1013.3 |
| 20260509083421 | 61 | 93 | 11.0 | 13.0 | 0.00 | 0.00 | 0.00 | 46 | 1013.6 |
| 20260509082918 | 61 | 110 | 5.0 | 12.0 | 0.00 | 0.00 | 0.00 | 46 | 1013.3 |
| 20260509082415 | 61 | 110 | 10.0 | 14.0 | 0.00 | 0.00 | 0.00 | 45 | 1013.2 |
| 20260509081912 | 61 | 89 | 7.0 | 13.0 | 0.00 | 0.00 | 0.00 | 45 | 1013.0 |
| 20260509081409 | 61 | 99 | 8.0 | 14.0 | 0.00 | 0.00 | 0.00 | 45 | 1013.0 |
| 20260509080907 | 61 | 91 | 9.0 | 13.0 | 0.00 | 0.00 | 0.00 | 46 | 1013.1 |
| 20260509080404 | 60 | 89 | 10.0 | 14.0 | 0.00 | 0.00 | 0.00 | 46 | 1013.2 |
| 20260509075903 | 61 | 103 | 8.0 | 11.0 | 0.00 | 0.00 | 0.00 | 46 | 1013.3 |
| 20260509075359 | 60 | 97 | 10.0 | 12.0 | 0.00 | 0.00 | 0.00 | 46 | 1013.5 |
| 20260509074856 | 60 | 92 | 4.0 | 11.0 | 0.00 | 0.00 | 0.00 | 47 | 1013.2 |
| 20260509074354 | 59 | 84 | 6.0 | 8.0 | 0.00 | 0.00 | 0.00 | 47 | 1013.5 |
| 20260509073850 | 59 | 101 | 8.0 | 10.0 | 0.00 | 0.00 | 0.00 | 47 | 1013.3 |
| 20260509073347 | 59 | 96 | 4.0 | 7.0 | 0.00 | 0.00 | 0.00 | 47 | 1013.7 |
| 20260509072843 | 60 | 88 | 3.0 | 9.0 | 0.00 | 0.00 | 0.00 | 46 | 1013.6 |
| 20260509072340 | 61 | 95 | 8.0 | 12.0 | 0.00 | 0.00 | 0.00 | 45 | 1013.2 |
| 20260509071837 | 62 | 87 | 7.0 | 14.0 | 0.00 | 0.00 | 0.00 | 44 | 1013.5 |
| 20260509071333 | 62 | 89 | 9.0 | 13.0 | 0.00 | 0.00 | 0.00 | 44 | 1013.7 |
| 20260509070831 | 62 | 87 | 8.0 | 11.0 | 0.00 | 0.00 | 0.00 | 44 | 1013.5 |
| 20260509070327 | 62 | 92 | 7.0 | 13.0 | 0.00 | 0.00 | 0.00 | 44 | 1013.5 |
| 20260509065824 | 62 | 102 | 9.0 | 13.0 | 0.00 | 0.00 | 0.00 | 44 | 1013.5 |
| 20260509065320 | 61 | 86 | 6.0 | 13.0 | 0.00 | 0.00 | 0.00 | 45 | 1013.6 |
| 20260509064816 | 61 | 97 | 4.0 | 10.0 | 0.00 | 0.00 | 0.00 | 45 | 1013.3 |
| 20260509064314 | 61 | 88 | 7.0 | 12.0 | 0.00 | 0.00 | 0.00 | 45 | 1013.2 |
| 20260509063811 | 62 | 86 | 9.0 | 15.0 | 0.00 | 0.00 | 0.00 | 44 | 1012.9 |
| 20260509063307 | 61 | 85 | 7.0 | 11.0 | 0.00 | 0.00 | 0.00 | 44 | 1012.9 |
| 20260509062804 | 61 | 98 | 9.0 | 11.0 | 0.00 | 0.00 | 0.00 | 44 | 1012.9 |
| 20260509062305 | 62 | 83 | 6.0 | 11.0 | 0.00 | 0.00 | 0.00 | 43 | 1012.8 |
| 20260509061758 | 63 | 80 | 6.0 | 10.0 | 0.00 | 0.00 | 0.00 | 42 | 1012.9 |
| 20260509061256 | 64 | 92 | 10.0 | 11.0 | 0.00 | 0.00 | 0.00 | 41 | 1013.0 |
| 20260509060753 | 63 | 70 | 10.0 | 14.0 | 0.00 | 0.00 | 0.00 | 41 | 1012.6 |
| 20260509060250 | 63 | 59 | 9.0 | 10.0 | 0.00 | 0.00 | 0.00 | 41 | 1012.8 |
| 20260509055746 | 64 | 75 | 8.0 | 11.0 | 0.00 | 0.00 | 0.00 | 41 | 1013.0 |
| 20260509055241 | 63 | 63 | 9.0 | 11.0 | 0.00 | 0.00 | 0.00 | 41 | 1012.9 |
| 20260509054738 | 63 | 73 | 8.0 | 12.0 | 0.00 | 0.00 | 0.00 | 41 | 1013.1 |
| 20260509054235 | 62 | 91 | 4.0 | 9.0 | 0.00 | 0.00 | 0.00 | 42 | 1013.0 |
| 20260509053734 | 62 | 89 | 8.0 | 9.0 | 0.00 | 0.00 | 0.00 | 41 | 1012.9 |
| 20260509053230 | 63 | 77 | 6.0 | 9.0 | 0.00 | 0.00 | 0.00 | 41 | 1013.1 |
| 20260509052728 | 62 | 77 | 6.0 | 8.0 | 0.00 | 0.00 | 0.00 | 41 | 1013.2 |
| 20260509052226 | 63 | 91 | 6.0 | 10.0 | 0.00 | 0.00 | 0.00 | 40 | 1013.2 |
| 20260509051723 | 63 | 91 | 6.0 | 8.0 | 0.00 | 0.00 | 0.00 | 40 | 1013.5 |
| 20260509051221 | 63 | 97 | 6.0 | 8.0 | 0.00 | 0.00 | 0.00 | 40 | 1013.5 |
| 20260509050717 | 63 | 92 | 7.0 | 9.0 | 0.00 | 0.00 | 0.00 | 40 | 1013.3 |
| 20260509050214 | 64 | 86 | 7.0 | 9.0 | 0.00 | 0.00 | 0.00 | 40 | 1013.2 |
| 20260509045711 | 65 | 96 | 4.0 | 8.0 | 0.00 | 0.00 | 0.00 | 39 | 1013.1 |
| 20260509045208 | 65 | 86 | 6.0 | 10.0 | 0.00 | 0.00 | 0.00 | 38 | 1013.2 |
| 20260509044706 | 64 | 91 | 5.0 | 8.0 | 0.00 | 0.00 | 0.00 | 39 | 1013.3 |
| 20260509044203 | 64 | 105 | 6.0 | 6.0 | 0.00 | 0.00 | 0.00 | 39 | 1013.2 |
| 20260509043659 | 64 | 84 | 8.0 | 9.0 | 0.00 | 0.00 | 0.00 | 40 | 1013.1 |
| 20260509043155 | 63 | 106 | 6.0 | 7.0 | 0.00 | 0.00 | 0.00 | 39 | 1013.3 |
| 20260509042651 | 63 | 94 | 2.0 | 3.0 | 0.00 | 0.00 | 0.00 | 40 | 1013.3 |
| 20260509042148 | 64 | 95 | 1.0 | 4.0 | 0.00 | 0.00 | 0.00 | 40 | 1013.2 |
| 20260509041644 | 65 | 88 | 4.0 | 5.0 | 0.00 | 0.00 | 0.00 | 38 | 1013.1 |
| 20260509041142 | 65 | 94 | 4.0 | 5.0 | 0.00 | 0.00 | 0.00 | 38 | 1013.2 |
| 20260509040640 | 66 | 89 | 4.0 | 6.0 | 0.00 | 0.00 | 0.00 | 38 | 1013.2 |
| 20260509040137 | 66 | 91 | 4.0 | 6.0 | 0.00 | 0.00 | 0.00 | 37 | 1013.1 |
| 20260509035634 | 67 | 91 | 5.0 | 7.0 | 0.00 | 0.00 | 0.00 | 37 | 1013.1 |
| 20260509035130 | 66 | 85 | 6.0 | 7.0 | 0.00 | 0.00 | 0.00 | 37 | 1013.0 |
| 20260509034628 | 66 | 87 | 6.0 | 6.0 | 0.00 | 0.00 | 0.00 | 37 | 1013.2 |
| 20260509034125 | 67 | 98 | 7.0 | 7.0 | 0.00 | 0.00 | 0.00 | 36 | 1013.1 |
| 20260509033622 | 66 | 92 | 5.0 | 8.0 | 0.00 | 0.00 | 0.00 | 36 | 1013.1 |
| 20260509033119 | 65 | 126 | 5.0 | 7.0 | 0.00 | 0.00 | 0.00 | 37 | 1013.0 |
| 20260509032616 | 66 | 138 | 4.0 | 7.0 | 0.00 | 0.00 | 0.00 | 35 | 1012.9 |
| 20260509032113 | 68 | 97 | 6.0 | 8.0 | 0.00 | 0.00 | 0.00 | 35 | 1012.8 |
| 20260509031611 | 68 | 80 | 5.0 | 8.0 | 0.00 | 0.00 | 0.00 | 36 | 1012.7 |
| 20260509031108 | 67 | 84 | 4.0 | 7.0 | 0.00 | 0.00 | 0.00 | 36 | 1012.6 |
| 20260509030606 | 65 | 117 | 3.0 | 4.0 | 0.00 | 0.00 | 0.00 | 37 | 1012.9 |
| 20260509025559 | 68 | 129 | 5.0 | 6.0 | 0.00 | 0.00 | 0.00 | 34 | 1012.7 |
| 20260509025054 | 69 | 78 | 5.0 | 6.0 | 0.00 | 0.00 | 0.00 | 34 | 1012.6 |
| 20260509024550 | 69 | 76 | 6.0 | 7.0 | 0.00 | 0.00 | 0.00 | 34 | 1012.5 |
| 20260509024046 | 70 | 77 | 5.0 | 7.0 | 0.00 | 0.00 | 0.00 | 33 | 1012.6 |
| 20260509023545 | 71 | 66 | 6.0 | 10.0 | 0.00 | 0.00 | 0.00 | 32 | 1012.5 |
| 20260509023041 | 71 | 74 | 6.0 | 9.0 | 0.00 | 0.00 | 0.00 | 32 | 1012.6 |
| 20260509022538 | 71 | 77 | 6.0 | 7.0 | 0.00 | 0.00 | 0.00 | 32 | 1012.3 |
| 20260509022036 | 71 | 80 | 4.0 | 7.0 | 0.00 | 0.00 | 0.00 | 32 | 1012.1 |
| 20260509021532 | 71 | 82 | 5.0 | 8.0 | 0.00 | 0.00 | 0.00 | 32 | 1012.2 |
| 20260509021029 | 71 | 91 | 4.0 | 6.0 | 0.00 | 0.00 | 0.00 | 32 | 1012.3 |
| 20260509020528 | 71 | 86 | 4.0 | 7.0 | 0.00 | 0.00 | 0.00 | 31 | 1012.2 |
| 20260509020024 | 72 | 85 | 5.0 | 8.0 | 0.00 | 0.00 | 0.00 | 31 | 1012.2 |
| 20260509015523 | 73 | 77 | 4.0 | 9.0 | 0.00 | 0.00 | 0.00 | 31 | 1012.0 |
| 20260509015020 | 73 | 69 | 6.0 | 7.0 | 0.00 | 0.00 | 0.00 | 30 | 1012.0 |
| 20260509014517 | 73 | 46 | 4.0 | 7.0 | 0.00 | 0.00 | 0.00 | 30 | 1011.9 |
| 20260509014013 | 74 | 61 | 5.0 | 6.0 | 0.00 | 0.00 | 0.00 | 29 | 1011.9 |
| 20260509013510 | 75 | 42 | 3.0 | 6.0 | 0.00 | 0.00 | 0.00 | 28 | 1011.9 |
| 20260509013005 | 75 | 50 | 6.0 | 9.0 | 0.00 | 0.00 | 0.00 | 29 | 1011.9 |
| 20260509012502 | 76 | 68 | 8.0 | 8.0 | 0.00 | 0.00 | 0.00 | 28 | 1011.9 |
| 20260509011959 | 76 | 43 | 4.0 | 8.0 | 0.00 | 0.00 | 0.00 | 27 | 1011.8 |
| 20260509011457 | 77 | 53 | 5.0 | 9.0 | 0.00 | 0.00 | 0.00 | 27 | 1011.7 |
| 20260509010954 | 77 | 42 | 6.0 | 13.0 | 0.00 | 0.00 | 0.00 | 26 | 1011.7 |
| 20260509010452 | 78 | 23 | 5.0 | 10.0 | 0.00 | 0.00 | 0.00 | 26 | 1011.7 |
| 20260509005948 | 78 | 17 | 6.0 | 11.0 | 0.00 | 0.00 | 0.00 | 25 | 1011.6 |
| 20260509005446 | 78 | 31 | 5.0 | 10.0 | 0.00 | 0.00 | 0.00 | 25 | 1011.6 |
| 20260509004940 | 79 | 22 | 6.0 | 8.0 | 0.00 | 0.00 | 0.00 | 25 | 1011.5 |
| 20260509004437 | 79 | 7 | 7.0 | 10.0 | 0.00 | 0.00 | 0.00 | 25 | 1011.7 |
| 20260509003935 | 79 | 21 | 6.0 | 11.0 | 0.00 | 0.00 | 0.00 | 25 | 1011.3 |
| 20260509003433 | 79 | 9 | 8.0 | 13.0 | 0.00 | 0.00 | 0.00 | 25 | 1011.3 |
| 20260509002930 | 79 | 8 | 8.0 | 13.0 | 0.00 | 0.00 | 0.00 | 25 | 1011.5 |
| 20260509002428 | 80 | 11 | 7.0 | 10.0 | 0.00 | 0.00 | 0.00 | 25 | 1011.2 |
| 20260509001924 | 80 | 20 | 8.0 | 13.0 | 0.00 | 0.00 | 0.00 | 25 | 1011.5 |
| 20260509001421 | 80 | 42 | 10.0 | 14.0 | 0.00 | 0.00 | 0.00 | 24 | 1011.3 |
| 20260509000918 | 80 | 16 | 10.0 | 14.0 | 0.00 | 0.00 | 0.00 | 24 | 1011.3 |
| 20260509000418 | 80 | 18 | 7.0 | 10.0 | 0.00 | 0.00 | 0.00 | 24 | 1011.2 |
| 20260508235911 | 80 | 9 | 10.0 | 19.0 | 0.00 | 0.00 | 0.00 | 24 | 1011.2 |
| 20260508235409 | 80 | 0 | 13.0 | 17.0 | 0.00 | 0.00 | 0.00 | 24 | 1011.2 |
| 20260508234906 | 80 | 24 | 8.0 | 17.0 | 0.00 | 0.00 | 0.00 | 24 | 1011.2 |
| 20260508234403 | 80 | 1 | 12.0 | 17.0 | 0.00 | 0.00 | 0.00 | 24 | 1011.2 |
| 20260508233901 | 80 | 6 | 15.0 | 21.0 | 0.00 | 0.00 | 0.00 | 24 | 1011.2 |
| 20260508233400 | 81 | 3 | 9.0 | 14.0 | 0.00 | 0.00 | 0.00 | 24 | 1011.1 |
| 20260508232856 | 81 | 6 | 14.0 | 20.0 | 0.00 | 0.00 | 0.00 | 24 | 1011.0 |
| 20260508232353 | 81 | 21 | 10.0 | 19.0 | 0.00 | 0.00 | 0.00 | 24 | 1011.1 |
| 20260508231851 | 81 | 354 | 6.0 | 13.0 | 0.00 | 0.00 | 0.00 | 24 | 1011.2 |
| 20260508231347 | 82 | 355 | 10.0 | 17.0 | 0.00 | 0.00 | 0.00 | 23 | 1011.2 |
| 20260508230844 | 82 | 8 | 9.0 | 11.0 | 0.00 | 0.00 | 0.00 | 24 | 1011.1 |
| 20260508230340 | 81 | 51 | 4.0 | 12.0 | 0.00 | 0.00 | 0.00 | 24 | 1011.2 |
| 20260508225838 | 82 | 22 | 7.0 | 11.0 | 0.00 | 0.00 | 0.00 | 23 | 1011.1 |
| 20260508225334 | 82 | 21 | 7.0 | 11.0 | 0.00 | 0.00 | 0.00 | 23 | 1011.1 |
| 20260508224833 | 82 | 11 | 10.0 | 13.0 | 0.00 | 0.00 | 0.00 | 23 | 1011.1 |
| 20260508224330 | 82 | 358 | 15.0 | 19.0 | 0.00 | 0.00 | 0.00 | 23 | 1011.0 |
| 20260508223827 | 81 | 36 | 10.0 | 16.0 | 0.00 | 0.00 | 0.00 | 24 | 1011.0 |
| 20260508223324 | 82 | 10 | 12.0 | 16.0 | 0.00 | 0.00 | 0.00 | 23 | 1011.1 |
| 20260508222822 | 82 | 36 | 4.0 | 10.0 | 0.00 | 0.00 | 0.00 | 24 | 1011.1 |
| 20260508222319 | 82 | 11 | 7.0 | 15.0 | 0.00 | 0.00 | 0.00 | 24 | 1011.0 |
| 20260508221815 | 81 | 24 | 5.0 | 13.0 | 0.00 | 0.00 | 0.00 | 24 | 1010.9 |
| 20260508221311 | 82 | 5 | 15.0 | 20.0 | 0.00 | 0.00 | 0.00 | 24 | 1011.0 |
| 20260508220807 | 82 | 356 | 9.0 | 15.0 | 0.00 | 0.00 | 0.00 | 23 | 1011.1 |
| 20260508220304 | 82 | 14 | 12.0 | 22.0 | 0.00 | 0.00 | 0.00 | 24 | 1011.1 |
| 20260508215801 | 82 | 355 | 18.0 | 19.0 | 0.00 | 0.00 | 0.00 | 23 | 1010.8 |
| 20260508215257 | 82 | 22 | 10.0 | 17.0 | 0.00 | 0.00 | 0.00 | 23 | 1010.9 |
| 20260508214754 | 82 | 11 | 12.0 | 17.0 | 0.00 | 0.00 | 0.00 | 24 | 1011.0 |
| 20260508214251 | 82 | 23 | 11.0 | 15.0 | 0.00 | 0.00 | 0.00 | 23 | 1010.9 |
| 20260508213748 | 82 | 14 | 11.0 | 17.0 | 0.00 | 0.00 | 0.00 | 22 | 1010.9 |
| 20260508213244 | 83 | 23 | 12.0 | 17.0 | 0.00 | 0.00 | 0.00 | 22 | 1011.0 |
| 20260508212735 | 82 | 28 | 9.0 | 15.0 | 0.00 | 0.00 | 0.00 | 21 | 1010.8 |
| 20260508212232 | 82 | 12 | 16.0 | 21.0 | 0.00 | 0.00 | 0.00 | 22 | 1010.9 |
| 20260508211727 | 83 | 2 | 9.0 | 22.0 | 0.00 | 0.00 | 0.00 | 21 | 1010.9 |
| 20260508211223 | 82 | 4 | 8.0 | 20.0 | 0.00 | 0.00 | 0.00 | 22 | 1010.9 |
| 20260508210721 | 83 | 30 | 11.0 | 16.0 | 0.00 | 0.00 | 0.00 | 22 | 1010.7 |
| 20260508210218 | 83 | 28 | 13.0 | 22.0 | 0.00 | 0.00 | 0.00 | 23 | 1011.0 |
| 20260508205715 | 83 | 38 | 12.0 | 17.0 | 0.00 | 0.00 | 0.00 | 22 | 1011.1 |
| 20260508205211 | 83 | 27 | 15.0 | 19.0 | 0.00 | 0.00 | 0.00 | 22 | 1011.0 |
| 20260508204707 | 83 | 331 | 11.0 | 17.0 | 0.00 | 0.00 | 0.00 | 21 | 1011.1 |
| 20260508204204 | 83 | 11 | 11.0 | 17.0 | 0.00 | 0.00 | 0.00 | 22 | 1011.0 |
| 20260508203700 | 83 | 3 | 19.0 | 21.0 | 0.00 | 0.00 | 0.00 | 21 | 1011.0 |
| 20260508203156 | 84 | 46 | 12.0 | 15.0 | 0.00 | 0.00 | 0.00 | 22 | 1011.2 |
| 20260508202652 | 83 | 337 | 11.0 | 19.0 | 0.00 | 0.00 | 0.00 | 21 | 1011.1 |
| 20260508202150 | 82 | 12 | 5.0 | 12.0 | 0.00 | 0.00 | 0.00 | 23 | 1011.0 |
| 20260508201646 | 82 | 346 | 10.0 | 16.0 | 0.00 | 0.00 | 0.00 | 21 | 1011.0 |
| 20260508201143 | 83 | 31 | 11.0 | 14.0 | 0.00 | 0.00 | 0.00 | 22 | 1011.1 |
| 20260508200640 | 82 | 346 | 7.0 | 17.0 | 0.00 | 0.00 | 0.00 | 22 | 1011.1 |
| 20260508200136 | 83 | 0 | 12.0 | 19.0 | 0.00 | 0.00 | 0.00 | 23 | 1011.1 |
| 20260508195633 | 83 | 351 | 13.0 | 16.0 | 0.00 | 0.00 | 0.00 | 24 | 1011.0 |
| 20260508195129 | 83 | 27 | 9.0 | 13.0 | 0.00 | 0.00 | 0.00 | 25 | 1011.0 |
| 20260508194626 | 82 | 62 | 7.0 | 14.0 | 0.00 | 0.00 | 0.00 | 26 | 1011.3 |
| 20260508194123 | 82 | 353 | 13.0 | 15.0 | 0.00 | 0.00 | 0.00 | 24 | 1011.2 |
| 20260508193620 | 83 | 351 | 13.0 | 17.0 | 0.00 | 0.00 | 0.00 | 25 | 1011.1 |
| 20260508193116 | 81 | 56 | 4.0 | 10.0 | 0.00 | 0.00 | 0.00 | 26 | 1011.3 |
| 20260508192613 | 81 | 0 | 12.0 | 16.0 | 0.00 | 0.00 | 0.00 | 25 | 1011.3 |
| 20260508192110 | 82 | 0 | 12.0 | 15.0 | 0.00 | 0.00 | 0.00 | 24 | 1011.3 |
| 20260508191607 | 83 | 82 | 10.0 | 14.0 | 0.00 | 0.00 | 0.00 | 25 | 1011.1 |
| 20260508191104 | 81 | 352 | 16.0 | 18.0 | 0.00 | 0.00 | 0.00 | 24 | 1011.2 |
| 20260508190601 | 81 | 343 | 10.0 | 11.0 | 0.00 | 0.00 | 0.00 | 25 | 1011.2 |
| 20260508190057 | 81 | 351 | 7.0 | 16.0 | 0.00 | 0.00 | 0.00 | 25 | 1011.5 |
| 20260508185554 | 81 | 328 | 11.0 | 14.0 | 0.00 | 0.00 | 0.00 | 25 | 1011.2 |
| 20260508185053 | 81 | 343 | 7.0 | 16.0 | 0.00 | 0.00 | 0.00 | 25 | 1011.3 |
| 20260508184549 | 81 | 6 | 5.0 | 18.0 | 0.00 | 0.00 | 0.00 | 25 | 1011.1 |
| 20260508184046 | 82 | 0 | 11.0 | 11.0 | 0.00 | 0.00 | 0.00 | 24 | 1011.2 |
| 20260508183542 | 81 | 346 | 1.0 | 10.0 | 0.00 | 0.00 | 0.00 | 24 | 1011.3 |
| 20260508183038 | 80 | 338 | 6.0 | 9.0 | 0.00 | 0.00 | 0.00 | 24 | 1011.3 |
| 20260508182534 | 81 | 319 | 6.0 | 12.0 | 0.00 | 0.00 | 0.00 | 25 | 1011.3 |
| 20260508182026 | 81 | 232 | 10.0 | 13.0 | 0.00 | 0.00 | 0.00 | 25 | 1011.5 |
| 20260508181521 | 80 | 233 | 3.0 | 10.0 | 0.00 | 0.00 | 0.00 | 25 | 1011.2 |
| 20260508181019 | 80 | 295 | 4.0 | 9.0 | 0.00 | 0.00 | 0.00 | 26 | 1011.8 |
| 20260508180515 | 79 | 321 | 9.0 | 13.0 | 0.00 | 0.00 | 0.00 | 26 | 1011.8 |
| 20260508180012 | 79 | 345 | 9.0 | 11.0 | 0.00 | 0.00 | 0.00 | 26 | 1011.7 |
| 20260508175508 | 78 | 276 | 4.0 | 7.0 | 0.00 | 0.00 | 0.00 | 28 | 1011.7 |
| 20260508175006 | 78 | 351 | 6.0 | 10.0 | 0.00 | 0.00 | 0.00 | 27 | 1011.8 |
| 20260508174503 | 79 | 296 | 9.0 | 11.0 | 0.00 | 0.00 | 0.00 | 27 | 1011.7 |
| 20260508174000 | 78 | 281 | 6.0 | 8.0 | 0.00 | 0.00 | 0.00 | 28 | 1012.0 |
| 20260508173457 | 78 | 217 | 4.0 | 6.0 | 0.00 | 0.00 | 0.00 | 29 | 1011.6 |
| 20260508172953 | 77 | 333 | 9.0 | 13.0 | 0.00 | 0.00 | 0.00 | 29 | 1011.9 |
| 20260508172450 | 77 | 273 | 2.0 | 8.0 | 0.00 | 0.00 | 0.00 | 29 | 1011.9 |
| 20260508171946 | 78 | 268 | 6.0 | 7.0 | 0.00 | 0.00 | 0.00 | 31 | 1012.1 |
| 20260508171443 | 77 | 302 | 6.0 | 6.0 | 0.00 | 0.00 | 0.00 | 30 | 1011.9 |
| 20260508170939 | 76 | 337 | 3.0 | 5.0 | 0.00 | 0.00 | 0.00 | 32 | 1012.1 |
| 20260508170437 | 76 | 254 | 5.0 | 9.0 | 0.00 | 0.00 | 0.00 | 33 | 1012.2 |
| 20260508165934 | 75 | 264 | 2.0 | 9.0 | 0.00 | 0.00 | 0.00 | 34 | 1012.3 |
| 20260508165432 | 74 | 226 | 10.0 | 10.0 | 0.00 | 0.00 | 0.00 | 34 | 1012.3 |
| 20260508164927 | 75 | 302 | 3.0 | 6.0 | 0.00 | 0.00 | 0.00 | 34 | 1012.3 |
| 20260508164425 | 74 | 222 | 9.0 | 12.0 | 0.00 | 0.00 | 0.00 | 34 | 1012.1 |
| 20260508163922 | 74 | 240 | 4.0 | 10.0 | 0.00 | 0.00 | 0.00 | 36 | 1012.3 |
| 20260508163420 | 73 | 305 | 6.0 | 9.0 | 0.00 | 0.00 | 0.00 | 37 | 1012.2 |
| 20260508162915 | 73 | 230 | 4.0 | 11.0 | 0.00 | 0.00 | 0.00 | 36 | 1012.6 |
| 20260508162413 | 73 | 238 | 4.0 | 8.0 | 0.00 | 0.00 | 0.00 | 36 | 1012.6 |
| 20260508161909 | 73 | 227 | 11.0 | 13.0 | 0.00 | 0.00 | 0.00 | 37 | 1012.5 |
| 20260508161407 | 72 | 274 | 4.0 | 11.0 | 0.00 | 0.00 | 0.00 | 39 | 1012.7 |
| 20260508160904 | 72 | 273 | 3.0 | 10.0 | 0.00 | 0.00 | 0.00 | 39 | 1012.5 |
| 20260508160403 | 72 | 254 | 5.0 | 14.0 | 0.00 | 0.00 | 0.00 | 39 | 1012.8 |
| 20260508155858 | 72 | 319 | 6.0 | 11.0 | 0.00 | 0.00 | 0.00 | 40 | 1012.7 |
| 20260508155356 | 71 | 251 | 6.0 | 11.0 | 0.00 | 0.00 | 0.00 | 40 | 1012.8 |
| 20260508154852 | 71 | 289 | 8.0 | 13.0 | 0.00 | 0.00 | 0.00 | 42 | 1012.7 |
| 20260508154350 | 71 | 217 | 6.0 | 12.0 | 0.00 | 0.00 | 0.00 | 42 | 1012.8 |
| 20260508153846 | 71 | 233 | 10.0 | 13.0 | 0.00 | 0.00 | 0.00 | 43 | 1012.8 |
| 20260508153344 | 70 | 281 | 9.0 | 13.0 | 0.00 | 0.00 | 0.00 | 43 | 1012.9 |
| 20260508152839 | 70 | 228 | 9.0 | 14.0 | 0.00 | 0.00 | 0.00 | 46 | 1013.0 |
| 20260508152336 | 69 | 222 | 8.0 | 14.0 | 0.00 | 0.00 | 0.00 | 48 | 1012.8 |
| 20260508151833 | 70 | 251 | 6.0 | 11.0 | 0.00 | 0.00 | 0.00 | 47 | 1012.9 |
| 20260508151330 | 69 | 226 | 8.0 | 12.0 | 0.00 | 0.00 | 0.00 | 48 | 1012.9 |
| 20260508150826 | 68 | 232 | 5.0 | 13.0 | 0.00 | 0.00 | 0.00 | 51 | 1012.8 |
| 20260508150323 | 67 | 228 | 6.0 | 14.0 | 0.00 | 0.00 | 0.00 | 53 | 1012.9 |
| 20260508145819 | 66 | 226 | 11.0 | 16.0 | 0.00 | 0.00 | 0.00 | 54 | 1012.9 |
| 20260508145315 | 67 | 221 | 10.0 | 17.0 | 0.00 | 0.00 | 0.00 | 54 | 1012.8 |
| 20260508144812 | 66 | 204 | 9.0 | 12.0 | 0.00 | 0.00 | 0.00 | 55 | 1013.1 |
| 20260508144310 | 65 | 229 | 9.0 | 14.0 | 0.00 | 0.00 | 0.00 | 57 | 1012.8 |
| 20260508143807 | 64 | 208 | 11.0 | 17.0 | 0.00 | 0.00 | 0.00 | 58 | 1012.7 |
| 20260508143304 | 64 | 214 | 9.0 | 20.0 | 0.00 | 0.00 | 0.00 | 58 | 1013.1 |
| 20260508142801 | 64 | 211 | 17.0 | 18.0 | 0.00 | 0.00 | 0.00 | 58 | 1012.8 |
| 20260508142258 | 65 | 215 | 14.0 | 17.0 | 0.00 | 0.00 | 0.00 | 57 | 1013.0 |
| 20260508141754 | 64 | 199 | 11.0 | 15.0 | 0.00 | 0.00 | 0.00 | 58 | 1013.1 |
| 20260508141251 | 63 | 218 | 4.0 | 13.0 | 0.00 | 0.00 | 0.00 | 61 | 1013.3 |
| 20260508140749 | 63 | 229 | 4.0 | 6.0 | 0.00 | 0.00 | 0.00 | 61 | 1013.5 |
| 20260508140246 | 62 | 234 | 3.0 | 5.0 | 0.00 | 0.00 | 0.00 | 62 | 1013.2 |
| 20260508135741 | 61 | 219 | 4.0 | 4.0 | 0.00 | 0.00 | 0.00 | 63 | 1013.3 |
| 20260508135238 | 60 | 296 | 2.0 | 4.0 | 0.00 | 0.00 | 0.00 | 64 | 1013.8 |
| 20260508134733 | 60 | 282 | 3.0 | 6.0 | 0.00 | 0.00 | 0.00 | 64 | 1013.7 |
| 20260508134232 | 59 | 0 | 1.0 | 5.0 | 0.00 | 0.00 | 0.00 | 65 | 1013.3 |
| 20260508133727 | 59 | 210 | 4.0 | 4.0 | 0.00 | 0.00 | 0.00 | 65 | 1013.1 |
| 20260508133225 | 58 | 292 | 4.0 | 4.0 | 0.00 | 0.00 | 0.00 | 66 | 1013.3 |
| 20260508132722 | 57 | 142 | 1.0 | 6.0 | 0.00 | 0.00 | 0.00 | 68 | 1012.9 |
| 20260508132220 | 57 | 208 | 2.0 | 4.0 | 0.00 | 0.00 | 0.00 | 69 | 1012.9 |
| 20260508131715 | 56 | 207 | 2.0 | 3.0 | 0.00 | 0.00 | 0.00 | 70 | 1012.7 |
| 20260508131212 | 55 | 215 | 0.0 | 3.0 | 0.00 | 0.00 | 0.00 | 71 | 1013.0 |
| 20260508130708 | 54 | 201 | 3.0 | 4.0 | 0.00 | 0.00 | 0.00 | 72 | 1013.0 |
| 20260508130205 | 54 | 188 | 4.0 | 4.0 | 0.00 | 0.00 | 0.00 | 73 | 1012.9 |
| 20260508125655 | 53 | 277 | 1.0 | 6.0 | 0.00 | 0.00 | 0.00 | 74 | 1013.1 |
| 20260508125152 | 53 | 199 | 2.0 | 6.0 | 0.00 | 0.00 | 0.00 | 75 | 1012.9 |
| 20260508124650 | 52 | 190 | 6.0 | 9.0 | 0.00 | 0.00 | 0.00 | 76 | 1012.5 |
| 20260508124147 | 52 | 181 | 6.0 | 8.0 | 0.00 | 0.00 | 0.00 | 77 | 1012.5 |
| 20260508123646 | 51 | 200 | 6.0 | 6.0 | 0.00 | 0.00 | 0.00 | 78 | 1012.7 |
| 20260508123143 | 51 | 202 | 3.0 | 5.0 | 0.00 | 0.00 | 0.00 | 78 | 1012.7 |
| 20260508122639 | 50 | 211 | 2.0 | 4.0 | 0.00 | 0.00 | 0.00 | 79 | 1012.6 |
| 20260508122136 | 50 | 209 | 5.0 | 6.0 | 0.00 | 0.00 | 0.00 | 80 | 1012.6 |
| 20260508121634 | 49 | 180 | 5.0 | 8.0 | 0.00 | 0.00 | 0.00 | 80 | 1012.6 |
| 20260508121132 | 49 | 201 | 7.0 | 9.0 | 0.00 | 0.00 | 0.00 | 80 | 1012.5 |
| 20260508120629 | 49 | 193 | 4.0 | 9.0 | 0.00 | 0.00 | 0.00 | 81 | 1012.5 |
| 20260508120127 | 48 | 199 | 6.0 | 6.0 | 0.00 | 0.00 | 0.00 | 82 | 1012.3 |
| 20260508115625 | 47 | 179 | 4.0 | 5.0 | 0.00 | 0.00 | 0.00 | 80 | 1012.3 |
| 20260508115121 | 49 | 194 | 3.0 | 5.0 | 0.00 | 0.00 | 0.00 | 80 | 1012.3 |
| 20260508114618 | 50 | 207 | 6.0 | 7.0 | 0.00 | 0.00 | 0.00 | 79 | 1012.3 |
| 20260508114114 | 50 | 202 | 5.0 | 8.0 | 0.00 | 0.00 | 0.00 | 78 | 1012.6 |
| 20260508113612 | 51 | 208 | 5.0 | 11.0 | 0.00 | 0.00 | 0.00 | 77 | 1012.2 |
| 20260508113110 | 51 | 202 | 8.0 | 14.0 | 0.00 | 0.00 | 0.00 | 77 | 1012.1 |
| 20260508112605 | 51 | 199 | 6.0 | 11.0 | 0.00 | 0.00 | 0.00 | 76 | 1012.2 |
| 20260508112103 | 52 | 202 | 10.0 | 11.0 | 0.00 | 0.00 | 0.00 | 76 | 1012.3 |
| 20260508111600 | 52 | 210 | 9.0 | 13.0 | 0.00 | 0.00 | 0.00 | 75 | 1012.5 |
| 20260508111057 | 53 | 195 | 9.0 | 12.0 | 0.00 | 0.00 | 0.00 | 74 | 1012.5 |
| 20260508110555 | 54 | 198 | 7.0 | 13.0 | 0.00 | 0.00 | 0.00 | 73 | 1012.6 |
| 20260508110050 | 54 | 205 | 9.0 | 12.0 | 0.00 | 0.00 | 0.00 | 73 | 1012.3 |
| 20260508105545 | 54 | 210 | 6.0 | 13.0 | 0.00 | 0.00 | 0.00 | 72 | 1012.3 |
| 20260508105043 | 54 | 217 | 9.0 | 13.0 | 0.00 | 0.00 | 0.00 | 72 | 1012.6 |
| 20260508104541 | 54 | 229 | 9.0 | 12.0 | 0.00 | 0.00 | 0.00 | 72 | 1012.5 |
| 20260508104037 | 54 | 227 | 10.0 | 12.0 | 0.00 | 0.00 | 0.00 | 72 | 1012.7 |
| 20260508103534 | 54 | 226 | 8.0 | 13.0 | 0.00 | 0.00 | 0.00 | 72 | 1012.5 |
| 20260508103031 | 54 | 223 | 8.0 | 11.0 | 0.00 | 0.00 | 0.00 | 71 | 1012.6 |
| 20260508102529 | 54 | 208 | 7.0 | 11.0 | 0.00 | 0.00 | 0.00 | 71 | 1012.6 |
| 20260508102027 | 54 | 207 | 7.0 | 11.0 | 0.00 | 0.00 | 0.00 | 71 | 1012.6 |
| 20260508101524 | 54 | 210 | 8.0 | 13.0 | 0.00 | 0.00 | 0.00 | 70 | 1012.7 |
| 20260508101021 | 54 | 207 | 6.0 | 10.0 | 0.00 | 0.00 | 0.00 | 70 | 1012.7 |
| 20260508100519 | 55 | 217 | 8.0 | 13.0 | 0.00 | 0.00 | 0.00 | 69 | 1012.6 |
| 20260508100016 | 55 | 202 | 12.0 | 13.0 | 0.00 | 0.00 | 0.00 | 69 | 1013.1 |
| 20260508095513 | 55 | 207 | 8.0 | 14.0 | 0.00 | 0.00 | 0.00 | 69 | 1012.7 |
| 20260508095009 | 55 | 206 | 8.0 | 10.0 | 0.00 | 0.00 | 0.00 | 68 | 1012.8 |
| 20260508094507 | 55 | 217 | 7.0 | 10.0 | 0.00 | 0.00 | 0.00 | 68 | 1013.2 |
| 20260508094003 | 55 | 215 | 11.0 | 12.0 | 0.00 | 0.00 | 0.00 | 68 | 1013.0 |
| 20260508093500 | 55 | 207 | 10.0 | 11.0 | 0.00 | 0.00 | 0.00 | 67 | 1013.0 |
| 20260508092958 | 55 | 210 | 10.0 | 12.0 | 0.00 | 0.00 | 0.00 | 68 | 1013.0 |
| 20260508092455 | 55 | 215 | 9.0 | 14.0 | 0.00 | 0.00 | 0.00 | 67 | 1013.1 |
| 20260508091954 | 55 | 205 | 9.0 | 13.0 | 0.00 | 0.00 | 0.00 | 66 | 1013.1 |
| 20260508091450 | 56 | 210 | 12.0 | 17.0 | 0.00 | 0.00 | 0.00 | 65 | 1013.2 |
| 20260508090948 | 56 | 207 | 13.0 | 19.0 | 0.00 | 0.00 | 0.00 | 65 | 1013.0 |